• în Republica Moldova
  • Lista ţărilor
  • Pe 7 zile
  • Temperatura apei
  • Hartă satelitară
  • Meteo pe hartă
  • Widget-uri
  • user-avatar
    Intrare

    Meteo pe oră la Quito

    Astăzi, 29 Aprilie, Sâmbătă

    Timp Temperatura Precipitaţii Vânt Presiune Umiditate
    00:00 +14°C° 0 mm 1 m/s 623 mmHg 88%
    01:00 +13°C° 0 mm 1 m/s 623 mmHg 92%
    02:00 +13°C° 0 mm 1 m/s 623 mmHg 93%
    03:00 +13°C° 0 mm 1 m/s 623 mmHg 94%
    04:00 +13°C° 0 mm 1 m/s 623 mmHg 94%
    05:00 +13°C° 0 mm 1 m/s 623 mmHg 92%
    06:00 +14°C° 0 mm 2 m/s 624 mmHg 90%
    07:00 +15°C° 0 mm 2 m/s 625 mmHg 85%
    08:00 +18°C° 0 mm 3 m/s 626 mmHg 75%
    09:00 +20°C° 0 mm 3 m/s 626 mmHg 65%
    10:00 +22°C° 0 mm 4 m/s 627 mmHg 55%
    11:00 +23°C° 0 mm 4 m/s 627 mmHg 50%
    12:00 +25°C° 0 mm 3 m/s 626 mmHg 46%
    13:00 +27°C° 0 mm 3 m/s 626 mmHg 40%
    14:00 +26°C° 0 mm 3 m/s 626 mmHg 42%
    15:00 +26°C° 0 mm 3 m/s 625 mmHg 44%
    16:00 +26°C° 0 mm 3 m/s 625 mmHg 45%
    17:00 +22°C° 0 mm 3 m/s 624 mmHg 55%
    18:00 +19°C° 0 mm 2 m/s 623 mmHg 65%
    19:00 +16°C° 0 mm 2 m/s 623 mmHg 75%
    20:00 +16°C° 0 mm 2 m/s 623 mmHg 78%
    21:00 +15°C° 0 mm 2 m/s 623 mmHg 82%
    22:00 +14°C° 0 mm 2 m/s 623 mmHg 85%
    23:00 +14°C° 0 mm 2 m/s 623 mmHg 86%

    Mâine, 30 Aprilie, Duminică

    Timp Temperatura Precipitaţii Vânt Presiune Umiditate
    00:00 +13°C° 0 mm 1 m/s 623 mmHg 87%
    01:00 +13°C° 0 mm 1 m/s 623 mmHg 88%
    02:00 +12°C° 0 mm 1 m/s 623 mmHg 89%
    03:00 +12°C° 0 mm 1 m/s 623 mmHg 89%
    04:00 +12°C° 0 mm 2 m/s 623 mmHg 90%
    05:00 +12°C° 0 mm 2 m/s 623 mmHg 88%
    06:00 +13°C° 0 mm 2 m/s 624 mmHg 86%
    07:00 +14°C° 0 mm 2 m/s 624 mmHg 84%
    08:00 +16°C° 0 mm 2 m/s 625 mmHg 71%
    09:00 +19°C° 0 mm 3 m/s 626 mmHg 59%
    10:00 +22°C° 0 mm 4 m/s 627 mmHg 46%
    11:00 +24°C° 0 mm 3 m/s 626 mmHg 43%
    12:00 +25°C° 0 mm 3 m/s 626 mmHg 40%
    13:00 +26°C° 0 mm 3 m/s 626 mmHg 37%
    14:00 +25°C° 0 mm 3 m/s 625 mmHg 39%
    15:00 +25°C° 0 mm 3 m/s 625 mmHg 40%
    16:00 +25°C° 0 mm 3 m/s 624 mmHg 42%
    17:00 +21°C° 0 mm 2 m/s 623 mmHg 51%
    18:00 +18°C° 0 mm 2 m/s 623 mmHg 60%
    19:00 +15°C° 0 mm 2 m/s 622 mmHg 69%
    20:00 +15°C° 0 mm 2 m/s 623 mmHg 72%
    21:00 +14°C° 0 mm 2 m/s 623 mmHg 74%
    22:00 +14°C° 0 mm 2 m/s 623 mmHg 76%
    23:00 +13°C° 0 mm 1 m/s 623 mmHg 80%

    Poimâine, 1 Mai, Luni

    Timp Temperatura Precipitaţii Vânt Presiune Umiditate
    00:00 +12°C° 0 mm 1 m/s 623 mmHg 83%
    01:00 +12°C° 0 mm 1 m/s 622 mmHg 87%
    02:00 +11°C° 0 mm 1 m/s 622 mmHg 88%
    03:00 +11°C° 0 mm 1 m/s 622 mmHg 90%
    04:00 +10°C° 0 mm 1 m/s 622 mmHg 91%
    05:00 +11°C° 0 mm 1 m/s 622 mmHg 88%
    06:00 +12°C° 0 mm 1 m/s 623 mmHg 84%
    07:00 +13°C° 0 mm 1 m/s 624 mmHg 81%
    08:00 +16°C° 0 mm 2 m/s 625 mmHg 69%
    09:00 +18°C° 0 mm 2 m/s 625 mmHg 58%
    10:00 +21°C° 0 mm 3 m/s 626 mmHg 46%
    11:00 +22°C° 0 mm 3 m/s 626 mmHg 42%
    12:00 +24°C° 0 mm 3 m/s 626 mmHg 38%
    13:00 +25°C° 0 mm 3 m/s 625 mmHg 34%
    14:00 +25°C° 0 mm 2 m/s 625 mmHg 35%
    15:00 +25°C° 0 mm 2 m/s 624 mmHg 37%
    16:00 +24°C° 0 mm 2 m/s 624 mmHg 38%
    17:00 +20°C° 0 mm 2 m/s 623 mmHg 48%
    18:00 +17°C° 0 mm 2 m/s 622 mmHg 59%
    19:00 +14°C° 0 mm 1 m/s 621 mmHg 69%
    20:00 +13°C° 0 mm 1 m/s 622 mmHg 70%
    21:00 +13°C° 0 mm 1 m/s 622 mmHg 70%
    22:00 +12°C° 0 mm 1 m/s 622 mmHg 70%
    23:00 +12°C° 0 mm 1 m/s 622 mmHg 73%

    2 Mai, Marţi

    Timp Temperatura Precipitaţii Vânt Presiune Umiditate
    00:00 +11°C° 0 mm 1 m/s 622 mmHg 76%
    01:00 +11°C° 0 mm 1 m/s 621 mmHg 79%
    02:00 +11°C° 0 mm 1 m/s 621 mmHg 81%
    03:00 +10°C° 0 mm 1 m/s 621 mmHg 83%
    04:00 +9°C° 0 mm 2 m/s 621 mmHg 85%
    05:00 +10°C° 0 mm 2 m/s 622 mmHg 83%
    06:00 +10°C° 0 mm 2 m/s 622 mmHg 81%
    07:00 +12°C° 0 mm 2 m/s 623 mmHg 80%
    08:00 +15°C° 0 mm 2 m/s 624 mmHg 69%
    09:00 +18°C° 0 mm 3 m/s 625 mmHg 59%
    10:00 +21°C° 0 mm 3 m/s 626 mmHg 48%
    11:00 +22°C° 0 mm 3 m/s 626 mmHg 43%
    12:00 +25°C° 0 mm 2 m/s 625 mmHg 38%
    13:00 +26°C° 0 mm 2 m/s 625 mmHg 34%
    14:00 +26°C° 0 mm 1 m/s 624 mmHg 34%
    15:00 +25°C° 0 mm 1 m/s 624 mmHg 35%
    16:00 +25°C° 0 mm 1 m/s 624 mmHg 36%
    17:00 +22°C° 0 mm 1 m/s 623 mmHg 48%
    18:00 +18°C° 0 mm 1 m/s 622 mmHg 60%
    19:00 +14°C° 0 mm 1 m/s 621 mmHg 72%
    20:00 +13°C° 0 mm 1 m/s 621 mmHg 74%
    21:00 +13°C° 0 mm 1 m/s 621 mmHg 76%
    22:00 +12°C° 0 mm 1 m/s 621 mmHg 78%
    23:00 +11°C° 0 mm 1 m/s 621 mmHg 78%

    3 Mai, Miercuri

    Timp Temperatura Precipitaţii Vânt Presiune Umiditate
    00:00 +11°C° 0 mm 1 m/s 621 mmHg 78%
    01:00 +11°C° 0 mm 1 m/s 621 mmHg 78%
    02:00 +10°C° 0 mm 1 m/s 621 mmHg 79%
    03:00 +10°C° 0 mm 1 m/s 621 mmHg 80%
    04:00 +10°C° 0 mm 1 m/s 621 mmHg 80%
    05:00 +11°C° 0 mm 1 m/s 622 mmHg 79%
    06:00 +12°C° 0 mm 1 m/s 622 mmHg 77%
    07:00 +13°C° 0 mm 1 m/s 623 mmHg 76%
    08:00 +15°C° 0 mm 2 m/s 624 mmHg 67%
    09:00 +18°C° 0 mm 3 m/s 625 mmHg 58%
    10:00 +21°C° 0 mm 3 m/s 626 mmHg 49%
    11:00 +22°C° 0 mm 3 m/s 625 mmHg 44%
    12:00 +24°C° 0 mm 2 m/s 625 mmHg 40%
    13:00 +26°C° 0 mm 2 m/s 624 mmHg 35%
    14:00 +25°C° 0 mm 2 m/s 624 mmHg 36%
    15:00 +25°C° 0 mm 2 m/s 624 mmHg 37%
    16:00 +25°C° 0 mm 2 m/s 623 mmHg 38%
    17:00 +21°C° 0 mm 2 m/s 622 mmHg 47%
    18:00 +18°C° 0 mm 2 m/s 622 mmHg 55%
    19:00 +14°C° 0 mm 2 m/s 621 mmHg 64%
    20:00 +14°C° 0 mm 2 m/s 621 mmHg 66%
    21:00 +13°C° 0 mm 1 m/s 621 mmHg 68%
    22:00 +13°C° 0 mm 1 m/s 622 mmHg 70%
    23:00 +12°C° 0 mm 1 m/s 621 mmHg 73%

    4 Mai, Joi

    Timp Temperatura Precipitaţii Vânt Presiune Umiditate
    00:00 +12°C° 0 mm 1 m/s 621 mmHg 76%
    01:00 +11°C° 0 mm 1 m/s 621 mmHg 79%
    02:00 +11°C° 0 mm 1 m/s 621 mmHg 81%
    03:00 +10°C° 0 mm 1 m/s 621 mmHg 83%
    04:00 +10°C° 0 mm 1 m/s 621 mmHg 85%
    05:00 +11°C° 0 mm 1 m/s 622 mmHg 84%
    06:00 +12°C° 0 mm 1 m/s 622 mmHg 82%
    07:00 +13°C° 0 mm 1 m/s 623 mmHg 80%
    08:00 +16°C° 0 mm 2 m/s 624 mmHg 69%
    09:00 +19°C° 0 mm 3 m/s 625 mmHg 59%
    10:00 +21°C° 0 mm 3 m/s 626 mmHg 49%
    11:00 +24°C° 0 mm 3 m/s 625 mmHg 44%
    12:00 +25°C° 0 mm 3 m/s 625 mmHg 39%
    13:00 +26°C° 0 mm 2 m/s 624 mmHg 35%
    14:00 +26°C° 0 mm 2 m/s 624 mmHg 36%
    15:00 +25°C° 0 mm 2 m/s 624 mmHg 37%
    16:00 +25°C° 0 mm 2 m/s 623 mmHg 38%
    17:00 +21°C° 0 mm 2 m/s 623 mmHg 48%
    18:00 +18°C° 0 mm 2 m/s 622 mmHg 57%
    19:00 +15°C° 0 mm 2 m/s 621 mmHg 67%
    20:00 +14°C° 0 mm 2 m/s 621 mmHg 70%
    21:00 +13°C° 0 mm 1 m/s 622 mmHg 74%
    22:00 +13°C° 0 mm 1 m/s 622 mmHg 78%
    23:00 +12°C° 0 mm 1 m/s 622 mmHg 80%
    Arată mai mult